Date String (YYYY-MM-DD hh:mm:ss) UTC,Instrument flags,Ambient pressure (hPa),Sample flow (lpm),Bypass flow (lpm),Sample temperature (°C),Ambient temperature (°C),ASC tube jacket temperature (°C),LED temperature (°C),Box temperature (°C),Sample RH (%),Span deviation,Mass concentration (μg/m³),Mass concentration (μg/m³),Mass concentration (μg/m³)
DateTimeUTC,F1_M11,P_M11,Q1_M11,Q2_M11,T1_M11,T2_M11,T3_M11,T4_M11,T5_M11,U1_M11,ZSPAN_M11,X0_M11,X2_M11,X1_M11
2023-02-12 07:00:00,,0822.9,4.98,0.00,22.5,20.7,00.0,31.4,24.3,09.2,0000.0,0009.37,0003.76,0003.36
2023-02-12 07:01:00,,0822.8,5.02,0.00,22.5,20.7,00.0,31.4,24.3,09.4,0000.0,0009.73,0003.72,0003.35
2023-02-12 07:02:00,,0822.9,5.00,0.00,22.4,20.7,00.0,31.3,24.3,09.2,0000.0,0008.88,0003.69,0003.33
2023-02-12 07:03:00,,0822.9,5.01,0.00,22.4,20.7,00.0,31.3,24.2,09.1,0000.0,0008.79,0003.64,0003.29
2023-02-12 07:04:00,,0823.0,5.01,0.00,22.4,20.5,00.0,31.3,24.1,09.1,0000.0,0008.74,0003.60,0003.26
2023-02-12 07:05:00,,0823.0,5.01,0.00,22.3,20.4,00.0,31.3,23.9,09.2,0000.0,0008.73,0003.59,0003.26
2023-02-12 07:06:00,,0823.0,5.00,0.00,22.2,20.3,00.0,31.3,23.9,09.3,0000.0,0008.67,0003.55,0003.24
2023-02-12 07:07:00,,0823.0,5.01,0.00,22.2,20.3,00.0,31.3,23.9,09.4,0000.0,0008.51,0003.55,0003.25
2023-02-12 07:08:00,,0823.0,4.98,0.00,22.2,20.3,00.0,31.2,23.9,09.5,0000.0,0008.45,0003.54,0003.26
2023-02-12 07:09:00,,0823.0,4.98,0.00,22.2,20.3,00.0,31.2,24.0,09.5,0000.0,0008.08,0003.56,0003.28
2023-02-12 07:10:00,,0823.0,5.00,0.00,22.2,20.4,00.0,31.2,24.0,09.6,0000.0,0008.02,0003.61,0003.33
2023-02-12 07:11:00,,0822.9,5.00,0.00,22.2,20.4,00.0,31.2,24.0,09.6,0000.0,0008.19,0003.72,0003.42
2023-02-12 07:12:00,,0823.0,5.00,0.00,22.2,20.3,00.0,31.2,23.9,09.4,0000.0,0006.85,0003.75,0003.44
2023-02-12 07:13:00,,0823.0,5.00,0.00,22.1,20.4,00.0,31.1,23.9,09.6,0000.0,0006.74,0003.76,0003.44
2023-02-12 07:14:00,,0823.0,4.97,0.00,22.2,21.4,00.0,31.1,24.1,09.7,0000.0,0006.98,0003.82,0003.49
2023-02-12 07:15:00,,0823.1,5.02,0.00,22.3,22.4,00.0,31.1,24.4,09.6,0000.0,0007.26,0003.92,0003.58
2023-02-12 07:16:00,,0823.1,4.98,0.00,22.4,22.5,00.0,31.1,24.5,09.6,0000.0,0007.37,0003.97,0003.62
2023-02-12 07:17:00,,0823.1,5.01,0.00,22.5,22.2,00.0,31.2,24.5,09.6,0000.0,0008.27,0004.05,0003.68
2023-02-12 07:18:00,,0823.1,5.10,0.00,22.5,22.0,00.0,31.2,24.5,09.6,0000.0,0008.47,0004.12,0003.76
2023-02-12 07:19:00,,0823.1,5.00,0.00,22.5,21.8,00.0,31.2,24.4,09.6,0000.0,0008.61,0004.17,0003.82
2023-02-12 07:20:00,,0823.1,5.04,0.00,22.5,21.6,00.0,31.3,24.4,09.4,0000.0,0008.79,0004.15,0003.81
2023-02-12 07:21:00,,0823.1,5.00,0.00,22.5,21.5,00.0,31.3,24.4,09.3,0000.0,0009.01,0004.10,0003.76
2023-02-12 07:22:00,,0823.1,5.05,0.00,22.5,21.3,00.0,31.3,24.4,09.1,0000.0,0008.90,0004.02,0003.69
2023-02-12 07:23:00,,0823.1,5.00,0.00,22.5,21.3,00.0,31.3,24.4,09.0,0000.0,0008.85,0003.97,0003.63
2023-02-12 07:24:00,,0823.1,5.03,0.00,22.5,21.3,00.0,31.3,24.4,09.1,0000.0,0008.74,0003.95,0003.63
2023-02-12 07:25:00,,0823.1,5.00,0.00,22.5,21.3,00.0,31.3,24.4,09.2,0000.0,0008.66,0003.93,0003.62
2023-02-12 07:26:00,,0823.1,5.01,0.00,22.5,21.2,00.0,31.3,24.4,09.4,0000.0,0008.55,0003.89,0003.59
2023-02-12 07:27:00,,0823.1,4.99,0.00,22.5,21.2,00.0,31.3,24.4,09.5,0000.0,0008.62,0003.86,0003.56
2023-02-12 07:28:00,,0823.1,4.98,0.00,22.5,21.1,00.0,31.3,24.4,09.5,0000.0,0007.83,0003.80,0003.51
2023-02-12 07:29:00,,0823.1,5.00,0.00,22.5,21.1,00.0,31.3,24.4,09.6,0000.0,0007.63,0003.72,0003.43
2023-02-12 07:30:00,,0823.1,4.99,0.00,22.5,21.0,00.0,31.3,24.4,09.6,0000.0,0007.55,0003.67,0003.36
2023-02-12 07:31:00,,0823.1,5.01,0.00,22.5,20.9,00.0,31.3,24.3,09.6,0000.0,0007.06,0003.65,0003.32
2023-02-12 07:32:00,,0823.1,5.02,0.00,22.5,20.9,00.0,31.3,24.3,09.6,0000.0,0005.77,0003.66,0003.32
2023-02-12 07:33:00,,0823.2,4.97,0.00,22.5,20.9,00.0,31.3,24.3,09.6,0000.0,0005.98,0003.70,0003.36
2023-02-12 07:34:00,,0823.2,4.99,0.00,22.5,20.9,00.0,31.3,24.3,09.6,0000.0,0006.18,0003.74,0003.40
2023-02-12 07:35:00,,0823.2,4.99,0.00,22.5,21.0,00.0,31.3,24.4,09.7,0000.0,0007.18,0003.78,0003.43
2023-02-12 07:36:00,,0823.2,5.00,0.00,22.5,21.1,00.0,31.3,24.4,09.7,0000.0,0007.40,0003.80,0003.45
2023-02-12 07:37:00,,0823.2,5.02,0.00,22.5,21.1,00.0,31.3,24.4,09.6,0000.0,0007.75,0003.83,0003.46
2023-02-12 07:38:00,,0823.2,5.01,0.00,22.5,21.1,00.0,31.3,24.4,09.5,0000.0,0007.91,0003.84,0003.46
2023-02-12 07:39:00,,0823.2,5.01,0.00,22.5,21.1,00.0,31.3,24.4,09.6,0000.0,0007.99,0003.86,0003.46
2023-02-12 07:40:00,,0823.2,5.03,0.00,22.5,21.0,00.0,31.3,24.4,09.6,0000.0,0007.91,0003.85,0003.46
2023-02-12 07:41:00,,0823.2,5.01,0.00,22.5,21.0,00.0,31.3,24.3,09.5,0000.0,0007.87,0003.81,0003.44
2023-02-12 07:42:00,,0823.3,4.98,0.00,22.5,20.9,00.0,31.3,24.3,09.5,0000.0,0008.04,0003.82,0003.45
2023-02-12 07:43:00,,0823.3,4.98,0.00,22.5,20.9,00.0,31.3,24.3,09.4,0000.0,0008.40,0003.84,0003.45
2023-02-12 07:44:00,,0823.4,5.02,0.00,22.5,20.9,00.0,31.3,24.3,09.4,0000.0,0008.34,0003.83,0003.44
2023-02-12 07:45:00,,0823.4,5.00,0.00,22.5,20.9,00.0,31.3,24.3,09.4,0000.0,0008.26,0003.81,0003.43
2023-02-12 07:46:00,,0823.3,4.98,0.00,22.5,20.8,00.0,31.3,24.3,09.4,0000.0,0007.90,0003.76,0003.40
2023-02-12 07:47:00,,0823.3,4.99,0.00,22.5,20.8,00.0,31.3,24.3,09.5,0000.0,0007.56,0003.74,0003.37
2023-02-12 07:48:00,,0823.3,5.02,0.00,22.5,20.9,00.0,31.3,24.3,09.5,0000.0,0007.51,0003.73,0003.36
2023-02-12 07:49:00,,0823.3,5.04,0.00,22.5,20.9,00.0,31.3,24.3,09.5,0000.0,0006.57,0003.70,0003.34
2023-02-12 07:50:00,,0823.4,4.98,0.00,22.5,20.9,00.0,31.3,24.3,09.4,0000.0,0006.40,0003.69,0003.33
2023-02-12 07:51:00,,0823.4,5.00,0.00,22.5,20.9,00.0,31.3,24.3,09.4,0000.0,0006.32,0003.69,0003.32
2023-02-12 07:52:00,,0823.3,4.99,0.00,22.5,20.9,00.0,31.3,24.3,09.4,0000.0,0006.22,0003.67,0003.31
2023-02-12 07:53:00,,0823.3,5.00,0.00,22.5,20.9,00.0,31.3,24.3,09.4,0000.0,0006.07,0003.66,0003.31
2023-02-12 07:54:00,,0823.4,5.00,0.00,22.4,20.7,00.0,31.3,24.2,09.6,0000.0,0005.55,0003.66,0003.31
2023-02-12 07:55:00,,0823.3,5.00,0.00,22.4,20.5,00.0,31.3,24.0,09.9,0000.0,0005.89,0003.71,0003.33
2023-02-12 07:56:00,,0823.4,5.00,0.00,22.3,20.3,00.0,31.3,23.9,09.9,0000.0,0007.14,0003.72,0003.36
2023-02-12 07:57:00,,0823.4,5.00,0.00,22.2,20.2,00.0,31.2,23.8,09.9,0000.0,0007.30,0003.77,0003.39
2023-02-12 07:58:00,,0823.4,5.01,0.00,22.2,20.0,00.0,31.2,23.8,09.9,0000.0,0007.51,0003.86,0003.45
2023-02-12 07:59:00,,0823.4,5.03,0.00,22.2,20.9,00.0,31.1,24.0,09.8,0000.0,0007.57,0003.91,0003.50
